sat.trackr.live / text

‹ back to catalog

SNUGLITE-II

NORAD 52899 · 2022-065F

PAYLOAD ACTIVE UNKNOWN

§ Identity

Operator
Country
SKOR
Launch date
2022-06-21
Launch site
NSC
Launch vehicle
Mass (kg)
RCS (m²)

External: N2YO · Heavens-Above · Gunter

§ Orbital elements

Epoch: 2026-05-24T22:26:22.507008Z

Period
98.34 min
Inclination
98.2174°
Eccentricity
0.0008802
Mean motion
14.64295771 rev/d
Perigee alt
673.1 km
Apogee alt
685.5 km
Semi-major
7,057.5 km
B*
1.6018e-4
RAAN
289.8115°
Arg perigee
96.9418°
Mean anomaly
263.2786°
Rev number
20,759

§ Raw data

SNUGLITE-II1 52899U 22065F   26144.93498272  .00000797  00000+0  16018-3 0  99902 52899  98.2174 289.8115 0008802  96.9418 263.2786 14.64295771207598

JSON: /api/v1/satellites/52899 · /tle

For live sub-satellite position, see the globe view (requires WebGL).

§ Visibility from observer

Set your observer location to see the next 7 days of passes ≥ 10°. The values pass through the URL so the page stays shareable.

No JS? Fill the form by hand. The geolocation button needs JavaScript.

§ Radio — SatNOGS DB

ModeDescriptionDownlinkUplink
DQPSK Mode S - DQPSK 2.405 GHz
GMSK Mode U - 9k6 GMSK AX25 G3RUH TLM 436.490 MHz

2 transmitters · refreshed weekly from db.satnogs.org